SCOUT A DEB, 3591

Orbit data source: Space-Track

SCOUT A DEB, 3591 is space debris in LEO originally from a launch on Thu, 19 May 1966 UTC launched from the Air Force Western Test Range (AFWTR). Debris objects in space refer to the collection of defunct objects orbiting the Earth. Examples of debris include non-operational satellites, rocket bodies, and fragments generated from explosions, collisions, or faulty payload assembly.

Loading next visibility...
Identifier
3591, 1966-041E
Orbit
LEO
Last TLE update
17 hours ago
Origin
Manufacturer
Unknown
Mission
Spacecraft
Bus & Motor
Unknown
Mass
Unknown
Launch date (UTC)
1966-05-19 (59 years ago)
Launch vehicle
Unknown
Launch site
Air Force Western Test Range (AFWTR)
Object type
Payload
Rocket body
Debris
Shape & HBR
Unknown
Radar Cross Section
Small (<0.1 m²)

Expand to show TLE details & history

TLE from 17 hours ago
0 SCOUT A DEB
1 03591U 66041E   25128.54999076  .00000336  00000-0  20092-3 0  9990
2 03591  90.2173  72.8729 0083698 330.5658  29.0823 14.03848796 10613
Epoch: 2025-05-08T13:11Z
Definitive object data (Epoch: 2025-05-08T13:11:59.201Z)
Latitude
-0.00001°
Longitude
8.25735°
Altitude
830.547 km
Speed
7.465 km/s
True Right ascension
04h 51m 29s
True Declination
0° 00' 00"
Sunlit
Object was in daylight at TLE epoch
Visualization TLE readout
Latitude
-88.13936°
Longitude
-178.39494°
Altitude
878.792 km
Speed
7.428 km/s
Apparent Right ascension
01h 54m 31s
Apparent Declination
-67° 22' 50"
Sunlit
Object is in daylight
Visualization observer readout
Local Sidereal Time
14:01:16
Azimuth
178.595° S
Elevation
-62.52°
Doppler factor
1
Orbital elements
Apogee altitude
938.197 km
Perigee altitude
816.741 km
Semi-major axis
7,255.606 km
Eccentricity
0.0083698
Inclination
90.2173°
RAAN
72.8729°
Arg. of periapsis
330.5658°
True anomaly
29.55278°
Mean anomaly
29.0823°
Eccentric anomaly
29.31711°
Mean motion
3.51182 °/min
BSTAR
0.00020092
Orbital period
102.51 mins
Loading maneuver chart data...
Loading SW <> Apogee altitude chart data...
Loading historical data...
Loading historical data...
Loading historical data...
Loading historical data...
Loading historical data...
Loading historical data...
Loading historical data...

SCOUT A DEB Visibility forecast

Observer location: undefined°, undefined°

Span
Click to sort rows by Start time (UTC) header in descending order
Start Az.
Max El. time (UTC)
Max El. Az.
Max El.
End time (UTC)
End Az.
10 mins2025-05-09 08:36:31.623Z3.762° NNE2025-05-09 08:41:31.623Z170.279° S44.193°2025-05-09 08:46:31.623Z182.757° SSW
8 mins2025-05-09 20:07:31.623Z146.784° SSE2025-05-09 20:10:31.623Z94.395° ESE37.081°2025-05-09 20:15:31.623Z10.895° NNE
6 mins2025-05-09 21:51:31.623Z251.465° W2025-05-09 21:53:31.623Z278.437° WNW18.947°2025-05-09 21:57:31.623Z324.702° NNW
|